• în Republica Moldova
  • Lista ţărilor
  • Pe 7 zile
  • Temperatura apei
  • Hartă satelitară
  • Meteo pe hartă
  • Widget-uri
  • user-avatar
    Intrare

    Meteo pe oră la Chişinău

    Astăzi, 16 August, Joi

    Timp Temperatura Precipitaţii Vânt Presiune Umiditate
    00:00 +24°C° 0 mm 1 m/s 752 mmHg 40%
    01:00 +24°C° 0 mm 1 m/s 752 mmHg 40%
    02:00 +23°C° 0 mm 2 m/s 752 mmHg 43%
    03:00 +23°C° 0 mm 2 m/s 752 mmHg 46%
    04:00 +21°C° 0 mm 2 m/s 753 mmHg 49%
    05:00 +21°C° 0 mm 2 m/s 753 mmHg 52%
    06:00 +23°C° 0 mm 2 m/s 753 mmHg 52%
    07:00 +25°C° 0 mm 3 m/s 753 mmHg 52%
    08:00 +26°C° 0 mm 3 m/s 753 mmHg 50%
    09:00 +29°C° 0 mm 3 m/s 753 mmHg 45%
    10:00 +31°C° 0 mm 3 m/s 753 mmHg 39%
    11:00 +34°C° 0 mm 3 m/s 753 mmHg 33%
    12:00 +35°C° 0 mm 3 m/s 753 mmHg 31%
    13:00 +35°C° 0 mm 2 m/s 752 mmHg 28%
    14:00 +36°C° 0 mm 2 m/s 752 mmHg 25%
    15:00 +35°C° 0 mm 2 m/s 752 mmHg 27%
    16:00 +34°C° 0 mm 3 m/s 752 mmHg 29%
    17:00 +33°C° 0 mm 3 m/s 752 mmHg 31%
    18:00 +31°C° 0 mm 3 m/s 752 mmHg 34%
    19:00 +30°C° 0 mm 3 m/s 752 mmHg 37%
    20:00 +29°C° 0 mm 3 m/s 752 mmHg 40%
    21:00 +28°C° 0 mm 3 m/s 752 mmHg 45%
    22:00 +26°C° 0 mm 3 m/s 752 mmHg 51%
    23:00 +25°C° 0 mm 3 m/s 752 mmHg 56%

    Mâine, 17 August, Vineri

    Timp Temperatura Precipitaţii Vânt Presiune Umiditate
    00:00 +25°C° 0 mm 3 m/s 752 mmHg 59%
    01:00 +24°C° 0 mm 3 m/s 752 mmHg 63%
    02:00 +24°C° 0 mm 3 m/s 752 mmHg 66%
    03:00 +22°C° 0 mm 3 m/s 752 mmHg 70%
    04:00 +21°C° 0 mm 3 m/s 752 mmHg 74%
    05:00 +21°C° 0 mm 3 m/s 752 mmHg 78%
    06:00 +22°C° 0 mm 4 m/s 753 mmHg 73%
    07:00 +25°C° 0 mm 4 m/s 753 mmHg 68%
    08:00 +26°C° 0 mm 4 m/s 753 mmHg 62%
    09:00 +28°C° 0 mm 4 m/s 753 mmHg 55%
    10:00 +30°C° 0 mm 4 m/s 753 mmHg 49%
    11:00 +33°C° 0 mm 4 m/s 753 mmHg 42%
    12:00 +34°C° 0 mm 3 m/s 753 mmHg 38%
    13:00 +35°C° 0 mm 3 m/s 753 mmHg 34%
    14:00 +36°C° 0 mm 3 m/s 752 mmHg 30%
    15:00 +35°C° 0 mm 3 m/s 752 mmHg 31%
    16:00 +35°C° 0 mm 2 m/s 752 mmHg 32%
    17:00 +34°C° 0 mm 2 m/s 752 mmHg 33%
    18:00 +31°C° 0,3 mm 2 m/s 752 mmHg 38%
    19:00 +30°C° 0,3 mm 2 m/s 752 mmHg 42%
    20:00 +28°C° 0,3 mm 2 m/s 752 mmHg 47%
    21:00 +27°C° 0,1 mm 2 m/s 752 mmHg 51%
    22:00 +26°C° 0,1 mm 2 m/s 752 mmHg 54%
    23:00 +25°C° 0,1 mm 2 m/s 752 mmHg 58%

    Poimâine, 18 August, Sâmbătă

    Timp Temperatura Precipitaţii Vânt Presiune Umiditate
    00:00 +25°C° 0 mm 2 m/s 752 mmHg 60%
    01:00 +24°C° 0 mm 2 m/s 752 mmHg 62%
    02:00 +23°C° 0 mm 2 m/s 752 mmHg 64%
    03:00 +23°C° 0 mm 2 m/s 752 mmHg 66%
    04:00 +23°C° 0 mm 2 m/s 752 mmHg 67%
    05:00 +21°C° 0 mm 2 m/s 752 mmHg 69%
    06:00 +24°C° 0 mm 2 m/s 753 mmHg 63%
    07:00 +26°C° 0 mm 2 m/s 753 mmHg 58%
    08:00 +28°C° 0 mm 2 m/s 753 mmHg 52%
    09:00 +30°C° 0 mm 3 m/s 753 mmHg 45%
    10:00 +33°C° 0 mm 3 m/s 753 mmHg 39%
    11:00 +34°C° 0 mm 3 m/s 753 mmHg 32%
    12:00 +35°C° 0 mm 3 m/s 753 mmHg 29%
    13:00 +36°C° 0 mm 2 m/s 752 mmHg 26%
    14:00 +36°C° 0 mm 1 m/s 752 mmHg 23%
    15:00 +36°C° 0 mm 2 m/s 752 mmHg 25%
    16:00 +35°C° 0 mm 2 m/s 752 mmHg 27%
    17:00 +34°C° 0 mm 2 m/s 752 mmHg 29%
    18:00 +32°C° 0,1 mm 2 m/s 752 mmHg 32%
    19:00 +31°C° 0,1 mm 3 m/s 752 mmHg 35%
    20:00 +29°C° 0,1 mm 3 m/s 753 mmHg 38%
    21:00 +28°C° 0 mm 3 m/s 753 mmHg 41%
    22:00 +27°C° 0 mm 2 m/s 753 mmHg 44%
    23:00 +26°C° 0 mm 2 m/s 753 mmHg 47%

    19 August, Duminică

    Timp Temperatura Precipitaţii Vânt Presiune Umiditate
    00:00 +25°C° 0 mm 1 m/s 753 mmHg 49%
    01:00 +25°C° 0 mm 1 m/s 753 mmHg 52%
    02:00 +24°C° 0 mm 1 m/s 753 mmHg 54%
    03:00 +24°C° 0,1 mm 1 m/s 753 mmHg 56%
    04:00 +23°C° 0,1 mm 1 m/s 753 mmHg 58%
    05:00 +23°C° 0,1 mm 1 m/s 753 mmHg 61%
    06:00 +24°C° 0 mm 1 m/s 753 mmHg 56%
    07:00 +26°C° 0 mm 1 m/s 753 mmHg 52%
    08:00 +28°C° 0 mm 1 m/s 754 mmHg 48%
    09:00 +30°C° 0 mm 1 m/s 753 mmHg 43%
    10:00 +32°C° 0 mm 1 m/s 753 mmHg 38%
    11:00 +34°C° 0 mm 1 m/s 753 mmHg 33%
    12:00 +34°C° 0 mm 1 m/s 753 mmHg 32%
    13:00 +34°C° 0 mm 1 m/s 753 mmHg 31%
    14:00 +34°C° 0 mm 1 m/s 753 mmHg 30%
    15:00 +35°C° 0 mm 2 m/s 753 mmHg 32%
    16:00 +34°C° 0 mm 2 m/s 752 mmHg 35%
    17:00 +32°C° 0 mm 2 m/s 752 mmHg 37%
    18:00 +31°C° 0,5 mm 1 m/s 753 mmHg 42%
    19:00 +29°C° 0,5 mm 1 m/s 753 mmHg 47%
    20:00 +28°C° 0,5 mm 1 m/s 753 mmHg 52%
    21:00 +27°C° 0,6 mm 1 m/s 753 mmHg 56%
    22:00 +26°C° 0,6 mm 1 m/s 753 mmHg 60%
    23:00 +25°C° 0,6 mm 1 m/s 753 mmHg 65%

    20 August, Luni

    Timp Temperatura Precipitaţii Vânt Presiune Umiditate
    00:00 +24°C° 0,4 mm 1 m/s 753 mmHg 68%
    01:00 +24°C° 0,4 mm 2 m/s 753 mmHg 72%
    02:00 +23°C° 0,4 mm 2 m/s 753 mmHg 75%
    03:00 +23°C° 1,2 mm 2 m/s 753 mmHg 78%
    04:00 +23°C° 1,2 mm 2 m/s 753 mmHg 81%
    05:00 +22°C° 1,2 mm 1 m/s 753 mmHg 84%
    06:00 +23°C° 0,1 mm 2 m/s 753 mmHg 79%
    07:00 +24°C° 0,1 mm 2 m/s 753 mmHg 74%
    08:00 +25°C° 0,1 mm 2 m/s 753 mmHg 69%
    09:00 +27°C° 0,1 mm 3 m/s 753 mmHg 62%
    10:00 +29°C° 0,1 mm 3 m/s 754 mmHg 54%
    11:00 +30°C° 0,1 mm 3 m/s 754 mmHg 47%
    12:00 +31°C° 0 mm 2 m/s 753 mmHg 44%
    13:00 +32°C° 0 mm 2 m/s 753 mmHg 41%
    14:00 +32°C° 0 mm 2 m/s 753 mmHg 37%
    15:00 +32°C° 0 mm 2 m/s 753 mmHg 38%
    16:00 +32°C° 0 mm 2 m/s 753 mmHg 38%
    17:00 +32°C° 0 mm 2 m/s 753 mmHg 39%
    18:00 +30°C° 0,1 mm 2 m/s 753 mmHg 43%
    19:00 +29°C° 0,1 mm 2 m/s 754 mmHg 47%
    20:00 +27°C° 0,1 mm 2 m/s 754 mmHg 52%
    21:00 +26°C° 0,1 mm 2 m/s 754 mmHg 56%
    22:00 +25°C° 0,1 mm 1 m/s 754 mmHg 60%
    23:00 +24°C° 0,1 mm 1 m/s 754 mmHg 63%

    21 August, Marţi

    Timp Temperatura Precipitaţii Vânt Presiune Umiditate
    00:00 +24°C° 0 mm 1 m/s 754 mmHg 65%
    01:00 +24°C° 0 mm 1 m/s 754 mmHg 66%
    02:00 +23°C° 0 mm 1 m/s 754 mmHg 68%
    03:00 +23°C° 0 mm 1 m/s 754 mmHg 69%
    04:00 +23°C° 0 mm 1 m/s 754 mmHg 70%
    05:00 +22°C° 0 mm 1 m/s 754 mmHg 71%
    06:00 +24°C° 0 mm 1 m/s 754 mmHg 66%
    07:00 +25°C° 0 mm 1 m/s 755 mmHg 60%
    08:00 +27°C° 0 mm 1 m/s 755 mmHg 55%
    09:00 +28°C° 0 mm 1 m/s 755 mmHg 49%
    10:00 +30°C° 0 mm 2 m/s 755 mmHg 44%
    11:00 +32°C° 0 mm 2 m/s 755 mmHg 38%
    12:00 +32°C° 0 mm 1 m/s 755 mmHg 37%
    13:00 +32°C° 0 mm 1 m/s 754 mmHg 36%
    14:00 +33°C° 0 mm 1 m/s 754 mmHg 35%
    15:00 +32°C° 0 mm 1 m/s 754 mmHg 35%
    16:00 +32°C° 0 mm 1 m/s 754 mmHg 36%
    17:00 +32°C° 0 mm 1 m/s 754 mmHg 36%
    18:00 +31°C° 0 mm 1 m/s 754 mmHg 39%
    19:00 +29°C° 0 mm 1 m/s 754 mmHg 41%
    20:00 +27°C° 0 mm 1 m/s 754 mmHg 44%
    21:00 +26°C° 0 mm 1 m/s 754 mmHg 45%
    22:00 +26°C° 0 mm 1 m/s 754 mmHg 45%
    23:00 +25°C° 0 mm 1 m/s 754 mmHg 46%
    Arată mai mult